Regional Weather Roundup
Issued by NWS Cleveland, OH

Home | Current Version | Previous Version | Text Only | Print | Product List | Glossary On
Versions: 1 2 3 4 5 6 7 8 9 10 11 12 13 14 15 16 17 18 19 20 21 22 23 24 25 26 27 28 29 30 31 32 33 34 35 36 37 38 39 40 41 42 43 44 45 46 47 48 49 50
000
ASUS41 KCLE 200810
RWRCLE
OHIO REGIONAL WEATHER ROUNDUP
NATIONAL WEATHER SERVICE CLEVELAND, OH
400 AM EDT SUN APR 20 2014

NOTE: "FAIR" INDICATES FEW OR NO CLOUDS BELOW 12,000 FEET WITH NO
SIGNIFICANT WEATHER AND/OR OBSTRUCTIONS TO VISIBILITY.

OHZ001>008-015>018-024>027-034-035-043-044-200900-
   NORTHWEST OHIO

CITY           SKY/WX    TMP DP  RH WIND       PRES   REMARKS
DEFIANCE       PTCLDY    37  30  75 CALM      30.31F
FINDLAY        CLEAR     38  30  73 NE5       30.30S
TOLEDO EXPRESS PTCLDY    35  31  85 SE3       30.30F
TOLEDO EXEC    PTCLDY    37  32  82 E3        30.32F
LIMA           CLEAR     37  31  78 N6        30.30R
$$

OHZ009>014-019>023-028>033-038-089-200900-
   NORTHEAST OHIO

CITY           SKY/WX    TMP DP  RH WIND       PRES   REMARKS
CLE-HOPKINS    CLEAR     41  31  67 NE3       30.33F
CLE-LAKEFRONT  CLEAR     42  33  70 CALM      30.30F
CUY CO. ARPT   NOT AVBL
LORAIN-ELYRIA  CLEAR     37  32  82 CALM      30.31S
ASHTABULA      CLEAR     33  27  78 CALM      30.32R
AKRON-CANTON   CLEAR     40  30  67 NE6       30.30R
WOOSTER        CLEAR     36  29  75 CALM      30.30S
MANSFIELD      CLEAR     42  28  57 CALM      30.29R
YOUNGSTOWN     PTCLDY    41  29  62 E8        30.29S
$$

OHZ042-051>053-060>062-070>072-077>081-200900-
  SOUTHWEST OHIO

CITY           SKY/WX    TMP DP  RH WIND       PRES   REMARKS
CINC-COVINGTON PTCLDY    50  34  54 NE6       30.23S
CINC-LUNKEN    CLEAR     41  38  89 CALM      30.25S
HAMILTON       CLEAR     40  35  83 CALM      30.26S
DAYTON         PTCLDY    40  33  76 N8        30.28R
WRIGHT-PAT AFB CLEAR     43  34  70 N1        30.27R
DAYTON GENERAL CLEAR     43  34  70 NE9       30.24S
WILMINGTON     CLEAR     42  32  67 E5        30.24S
$$

OHZ036-037-039>041-045>050-054>059-063>069-073>076-082>088-200900-
  CENTRAL AND SOUTHEAST OHIO

CITY           SKY/WX    TMP DP  RH WIND       PRES   REMARKS
COLUMBUS       PTCLDY    47  30  51 NE6       30.26S
OSU AIRPORT    CLEAR     42  30  62 NE5       30.27R
BOLTON FIELD   CLEAR     42  32  68 N5        30.26S
RICKENBACK AFB CLEAR     44  31  59 NE8       30.25S
NEWARK         CLEAR     44  29  55 N5        30.27R
MARION         CLEAR     36  30  79 NE3       30.29R
LANCASTER      CLEAR     41  32  70 N3        30.26S
ZANESVILLE     CLEAR     43  28  55 N3        30.26S
NEW PHILLY     CLEAR     39  31  72 CALM      30.30R
$$



USA.gov is the U.S. government's official web portal to all federal, state and local government web resources and services.